Time,TemperatureF,DewpointF,PressureIn,WindDirection,WindDirectionDegrees,WindSpeedMPH,WindSpeedGustMPH,Humidity,HourlyPrecipIn,Conditions,Clouds,dailyrainin,SoftwareType,DateUTC
2013-02-13 00:06:00,30.0,25.0,29.99,ENE,70,0.0,0.0,80,0.00,,,0.00,weatherlink.com 1.10,2013-02-13 05:06:00,
2013-02-13 00:21:00,29.9,24.0,29.99,ENE,70,0.0,0.0,80,0.00,,,0.00,weatherlink.com 1.10,2013-02-13 05:21:00,
2013-02-13 00:36:00,30.5,24.0,30.00,ENE,70,0.0,0.0,78,0.00,,,0.00,weatherlink.com 1.10,2013-02-13 05:36:00,
2013-02-13 00:52:00,29.6,24.0,30.00,ENE,70,0.0,0.0,80,0.00,,,0.00,weatherlink.com 1.10,2013-02-13 05:52:00,
2013-02-13 01:07:00,29.9,24.0,30.00,ENE,70,0.0,0.0,79,0.00,,,0.00,weatherlink.com 1.10,2013-02-13 06:07:00,
2013-02-13 01:22:00,29.7,24.0,30.00,ENE,70,0.0,0.0,79,0.00,,,0.00,weatherlink.com 1.10,2013-02-13 06:22:00,
2013-02-13 01:37:00,28.9,23.0,29.99,ENE,70,0.0,0.0,80,0.00,,,0.00,weatherlink.com 1.10,2013-02-13 06:37:00,
2013-02-13 01:52:00,29.2,24.0,29.99,ENE,70,0.0,0.0,80,0.00,,,0.00,weatherlink.com 1.10,2013-02-13 06:52:00,
2013-02-13 02:07:00,29.7,24.0,29.98,ENE,70,0.0,0.0,80,0.00,,,0.00,weatherlink.com 1.10,2013-02-13 07:07:00,
2013-02-13 02:22:00,28.8,24.0,29.98,ENE,70,0.0,0.0,81,0.00,,,0.00,weatherlink.com 1.10,2013-02-13 07:22:00,
2013-02-13 02:37:00,28.8,24.0,29.97,ENE,70,0.0,0.0,81,0.00,,,0.00,weatherlink.com 1.10,2013-02-13 07:37:00,
2013-02-13 02:52:00,28.8,24.0,29.95,ENE,68,1.0,2.0,83,0.00,,,0.00,weatherlink.com 1.10,2013-02-13 07:52:00,
2013-02-13 03:07:00,30.3,24.0,29.95,East,79,0.0,2.0,77,0.00,,,0.00,weatherlink.com 1.10,2013-02-13 08:07:00,
2013-02-13 03:22:00,30.4,24.0,29.94,ENE,76,0.0,3.0,77,0.00,,,0.00,weatherlink.com 1.10,2013-02-13 08:22:00,
2013-02-13 03:37:00,30.3,24.0,29.94,South,178,2.0,3.0,76,0.00,,,0.00,weatherlink.com 1.10,2013-02-13 08:37:00,
2013-02-13 03:52:00,26.8,23.0,29.95,South,190,0.0,0.0,84,0.00,,,0.00,weatherlink.com 1.10,2013-02-13 08:52:00,
2013-02-13 04:07:00,25.8,22.0,29.94,South,190,0.0,0.0,86,0.00,,,0.00,weatherlink.com 1.10,2013-02-13 09:07:00,
2013-02-13 04:22:00,25.8,23.0,29.95,South,190,0.0,0.0,87,0.00,,,0.00,weatherlink.com 1.10,2013-02-13 09:22:00,
2013-02-13 04:37:00,26.0,23.0,29.94,South,190,0.0,0.0,87,0.00,,,0.00,weatherlink.com 1.10,2013-02-13 09:37:00,
2013-02-13 04:52:00,25.5,23.0,29.94,South,190,0.0,0.0,88,0.00,,,0.00,weatherlink.com 1.10,2013-02-13 09:52:00,
2013-02-13 05:07:00,25.7,23.0,29.94,South,190,0.0,0.0,89,0.00,,,0.00,weatherlink.com 1.10,2013-02-13 10:07:00,
2013-02-13 05:22:00,25.7,23.0,29.94,South,190,0.0,0.0,90,0.00,,,0.00,weatherlink.com 1.10,2013-02-13 10:22:00,
2013-02-13 05:37:00,25.6,23.0,29.94,South,190,0.0,0.0,90,0.00,,,0.00,weatherlink.com 1.10,2013-02-13 10:37:00,
2013-02-13 05:52:00,25.2,22.0,29.93,South,190,0.0,0.0,89,0.00,,,0.00,weatherlink.com 1.10,2013-02-13 10:52:00,
2013-02-13 06:07:00,25.7,23.0,29.93,South,190,0.0,0.0,90,0.00,,,0.00,weatherlink.com 1.10,2013-02-13 11:07:00,
2013-02-13 06:22:00,26.2,24.0,29.93,South,190,0.0,0.0,90,0.00,,,0.00,weatherlink.com 1.10,2013-02-13 11:22:00,
2013-02-13 06:37:00,26.1,24.0,29.93,South,190,0.0,0.0,90,0.00,,,0.00,weatherlink.com 1.10,2013-02-13 11:37:00,
2013-02-13 06:52:00,26.9,24.0,29.93,South,190,0.0,0.0,88,0.00,,,0.00,weatherlink.com 1.10,2013-02-13 11:52:00,
2013-02-13 07:07:00,26.4,23.0,29.93,South,190,0.0,0.0,88,0.00,,,0.00,weatherlink.com 1.10,2013-02-13 12:07:00,
2013-02-13 07:22:00,25.9,23.0,29.93,South,190,0.0,0.0,89,0.00,,,0.00,weatherlink.com 1.10,2013-02-13 12:22:00,
2013-02-13 07:37:00,26.9,24.0,29.92,South,190,0.0,0.0,89,0.00,,,0.00,weatherlink.com 1.10,2013-02-13 12:37:00,
2013-02-13 07:52:00,29.3,26.0,29.92,South,190,0.0,1.0,88,0.00,,,0.00,weatherlink.com 1.10,2013-02-13 12:52:00,
2013-02-13 08:07:00,31.0,27.0,29.91,South,190,0.0,0.0,84,0.00,,,0.00,weatherlink.com 1.10,2013-02-13 13:07:00,
2013-02-13 08:22:00,32.3,27.0,29.91,SSE,159,0.0,1.0,81,0.00,,,0.00,weatherlink.com 1.10,2013-02-13 13:22:00,
2013-02-13 08:37:00,33.6,28.0,29.91,SSE,155,0.0,0.0,79,0.00,,,0.00,weatherlink.com 1.10,2013-02-13 13:37:00,
2013-02-13 08:53:00,33.9,28.0,29.91,SSE,153,0.0,1.0,78,0.00,,,0.00,weatherlink.com 1.10,2013-02-13 13:53:00,
2013-02-13 09:08:00,34.0,27.0,29.90,South,184,0.0,3.0,76,0.00,,,0.00,weatherlink.com 1.10,2013-02-13 14:08:00,
2013-02-13 09:23:00,33.7,28.0,29.91,South,190,1.0,3.0,80,0.00,,,0.00,weatherlink.com 1.10,2013-02-13 14:23:00,
2013-02-13 09:38:00,34.0,27.0,29.91,South,187,0.0,2.0,76,0.00,,,0.00,weatherlink.com 1.10,2013-02-13 14:38:00,
2013-02-13 09:53:00,34.9,28.0,29.91,South,178,1.0,3.0,76,0.00,,,0.00,weatherlink.com 1.10,2013-02-13 14:53:00,
2013-02-13 10:08:00,35.6,27.0,29.91,SSE,159,0.0,3.0,72,0.00,,,0.00,weatherlink.com 1.10,2013-02-13 15:08:00,
2013-02-13 10:23:00,36.8,27.0,29.92,South,184,1.0,3.0,69,0.00,,,0.00,weatherlink.com 1.10,2013-02-13 15:23:00,
2013-02-13 10:38:00,36.7,27.0,29.89,West,281,1.0,5.0,68,0.00,,,0.00,weatherlink.com 1.10,2013-02-13 15:38:00,
2013-02-13 10:53:00,37.7,27.0,29.89,East,79,5.0,8.0,66,0.00,,,0.00,weatherlink.com 1.10,2013-02-13 15:53:00,
2013-02-13 11:08:00,38.1,27.0,29.89,NE,44,1.0,3.0,65,0.00,,,0.00,weatherlink.com 1.10,2013-02-13 16:08:00,
2013-02-13 11:23:00,38.7,27.0,29.89,NE,35,0.0,5.0,64,0.00,,,0.00,weatherlink.com 1.10,2013-02-13 16:23:00,
2013-02-13 11:38:00,39.4,28.0,29.88,East,87,0.0,4.0,63,0.00,,,0.00,weatherlink.com 1.10,2013-02-13 16:38:00,
2013-02-13 11:53:00,39.8,27.0,29.86,ESE,103,2.0,7.0,61,0.00,,,0.00,weatherlink.com 1.10,2013-02-13 16:53:00,
2013-02-13 12:08:00,39.9,28.0,29.85,SSW,207,0.0,4.0,62,0.00,,,0.00,weatherlink.com 1.10,2013-02-13 17:08:00,
2013-02-13 12:23:00,39.9,27.0,29.82,SE,128,0.0,5.0,60,0.00,,,0.00,weatherlink.com 1.10,2013-02-13 17:23:00,
2013-02-13 12:38:00,40.9,28.0,29.81,East,98,3.0,5.0,60,0.00,,,0.00,weatherlink.com 1.10,2013-02-13 17:38:00,
2013-02-13 12:53:00,40.8,28.0,29.81,SE,125,1.0,5.0,60,0.00,,,0.00,weatherlink.com 1.10,2013-02-13 17:53:00,
2013-02-13 13:08:00,40.7,28.0,29.81,NE,44,1.0,3.0,60,0.00,,,0.00,weatherlink.com 1.10,2013-02-13 18:08:00,
2013-02-13 13:23:00,40.4,28.0,29.81,ENE,62,0.0,4.0,62,0.00,,,0.00,weatherlink.com 1.10,2013-02-13 18:23:00,
2013-02-13 13:38:00,40.3,28.0,29.81,SSE,155,0.0,1.0,61,0.00,,,0.00,weatherlink.com 1.10,2013-02-13 18:38:00,
2013-02-13 13:53:00,40.1,27.0,29.79,SSE,164,0.0,3.0,61,0.00,,,0.00,weatherlink.com 1.10,2013-02-13 18:53:00,
2013-02-13 14:08:00,40.0,27.0,29.78,NE,41,1.0,5.0,61,0.00,,,0.00,weatherlink.com 1.10,2013-02-13 19:08:00,
2013-02-13 14:23:00,39.8,28.0,29.78,East,80,0.0,4.0,62,0.00,,,0.00,weatherlink.com 1.10,2013-02-13 19:23:00,
2013-02-13 14:38:00,40.0,28.0,29.77,East,83,0.0,3.0,62,0.00,,,0.00,weatherlink.com 1.10,2013-02-13 19:38:00,
2013-02-13 14:53:00,39.5,28.0,29.76,NE,51,0.0,4.0,63,0.00,,,0.00,weatherlink.com 1.10,2013-02-13 19:53:00,
2013-02-13 15:08:00,39.6,28.0,29.75,ENE,66,5.0,5.0,63,0.00,,,0.00,weatherlink.com 1.10,2013-02-13 20:08:00,
2013-02-13 15:23:00,39.3,28.0,29.75,ENE,61,2.0,6.0,65,0.00,,,0.00,weatherlink.com 1.10,2013-02-13 20:23:00,
2013-02-13 15:39:00,39.6,29.0,29.74,NNE,32,2.0,4.0,65,0.00,,,0.00,weatherlink.com 1.10,2013-02-13 20:39:00,
2013-02-13 15:54:00,39.5,28.0,29.73,ENE,65,5.0,7.0,64,0.00,,,0.00,weatherlink.com 1.10,2013-02-13 20:54:00,
2013-02-13 16:09:00,39.2,28.0,29.72,NE,40,1.0,6.0,65,0.00,,,0.00,weatherlink.com 1.10,2013-02-13 21:09:00,
2013-02-13 16:24:00,39.2,28.0,29.73,ENE,72,1.0,3.0,64,0.00,,,0.00,weatherlink.com 1.10,2013-02-13 21:24:00,
2013-02-13 16:39:00,39.1,28.0,29.72,ENE,61,0.0,5.0,65,0.00,,,0.00,weatherlink.com 1.10,2013-02-13 21:39:00,
2013-02-13 16:54:00,38.9,29.0,29.73,NW,313,0.0,1.0,67,0.00,,,0.00,weatherlink.com 1.10,2013-02-13 21:54:00,
2013-02-13 17:09:00,38.8,29.0,29.72,NNW,340,0.0,0.0,68,0.00,,,0.00,weatherlink.com 1.10,2013-02-13 22:09:00,
2013-02-13 17:24:00,38.6,29.0,29.73,SW,236,0.0,4.0,69,0.00,,,0.00,weatherlink.com 1.10,2013-02-13 22:24:00,
2013-02-13 17:54:00,36.2,31.0,29.74,ENE,60,0.0,2.0,80,0.00,,,0.00,weatherlink.com 1.10,2013-02-13 22:54:00,
2013-02-13 18:09:00,35.2,31.0,29.73,NE,53,1.0,3.0,85,0.00,,,0.00,weatherlink.com 1.10,2013-02-13 23:09:00,
2013-02-13 18:24:00,34.3,31.0,29.74,NE,53,0.0,0.0,88,0.01,,,0.01,weatherlink.com 1.10,2013-02-13 23:24:00,
2013-02-13 18:39:00,33.5,31.0,29.74,North,360,0.0,2.0,91,0.01,,,0.01,weatherlink.com 1.10,2013-02-13 23:39:00,
2013-02-13 18:54:00,32.9,31.0,29.74,NNE,33,1.0,4.0,92,0.02,,,0.02,weatherlink.com 1.10,2013-02-13 23:54:00,
2013-02-13 19:09:00,32.7,31.0,29.74,NE,49,1.0,3.0,93,0.02,,,0.02,weatherlink.com 1.10,2013-02-14 00:09:00,
2013-02-13 19:24:00,32.8,31.0,29.75,NE,40,1.0,4.0,94,0.01,,,0.02,weatherlink.com 1.10,2013-02-14 00:24:00,
2013-02-13 19:39:00,32.6,31.0,29.75,NE,51,0.0,3.0,94,0.01,,,0.02,weatherlink.com 1.10,2013-02-14 00:39:00,
2013-02-13 19:54:00,32.5,31.0,29.75,NE,46,0.0,2.0,94,0.00,,,0.02,weatherlink.com 1.10,2013-02-14 00:54:00,
2013-02-13 20:09:00,32.2,31.0,29.75,NE,46,1.0,2.0,95,0.00,,,0.02,weatherlink.com 1.10,2013-02-14 01:09:00,
2013-02-13 20:24:00,32.1,31.0,29.75,NE,49,0.0,0.0,95,0.00,,,0.02,weatherlink.com 1.10,2013-02-14 01:24:00,
2013-02-13 20:39:00,31.9,31.0,29.75,North,5,0.0,2.0,95,0.00,,,0.02,weatherlink.com 1.10,2013-02-14 01:39:00,
2013-02-13 20:54:00,31.9,31.0,29.75,North,5,0.0,0.0,95,0.00,,,0.02,weatherlink.com 1.10,2013-02-14 01:54:00,
2013-02-13 21:09:00,31.9,31.0,29.74,North,5,0.0,0.0,96,0.00,,,0.02,weatherlink.com 1.10,2013-02-14 02:09:00,
2013-02-13 21:24:00,31.9,31.0,29.74,NW,313,0.0,0.0,96,0.00,,,0.02,weatherlink.com 1.10,2013-02-14 02:24:00,
2013-02-13 21:39:00,31.9,31.0,29.75,NW,305,0.0,1.0,96,0.00,,,0.02,weatherlink.com 1.10,2013-02-14 02:39:00,
2013-02-13 21:54:00,31.7,31.0,29.76,West,274,1.0,3.0,96,0.00,,,0.02,weatherlink.com 1.10,2013-02-14 02:54:00,
2013-02-13 22:09:00,31.7,31.0,29.76,West,269,0.0,3.0,96,0.00,,,0.02,weatherlink.com 1.10,2013-02-14 03:09:00,
2013-02-13 22:24:00,31.8,31.0,29.77,WNW,298,0.0,3.0,96,0.00,,,0.02,weatherlink.com 1.10,2013-02-14 03:24:00,
2013-02-13 22:39:00,31.8,31.0,29.77,WSW,255,0.0,6.0,96,0.00,,,0.02,weatherlink.com 1.10,2013-02-14 03:39:00,
2013-02-13 22:54:00,31.8,31.0,29.77,WSW,253,0.0,3.0,96,0.00,,,0.02,weatherlink.com 1.10,2013-02-14 03:54:00,
2013-02-13 23:09:00,31.8,31.0,29.77,West,265,2.0,2.0,97,0.00,,,0.02,weatherlink.com 1.10,2013-02-14 04:09:00,
2013-02-13 23:39:00,31.9,31.0,29.78,WNW,287,0.0,3.0,97,0.00,,,0.02,weatherlink.com 1.10,2013-02-14 04:39:00,